[[{"header":{"parameterUnit":"m.s-1","parameterCategory":1,"la1":30.2991,"la2":30.254,"lo1":-89.0895,"lo2":-89.0444,"dy":0.0017,"dx":0.0017,"nx":28,"ny":28,"refTime":"2024-10-06T09:00:00:Z","depth":0,"parameterNumber":2,"parameterNumberName":"U-component_of_WINDS"},"data":[0,0,0,0,0,0,0,0,0,0,0,0,0,0,0,0,0,0,0,0,0,0,0,0,0,0,0,0,0,0,0,0,0,0,0,0,0,0,0,0,0,0,0,0,0,0,0,0,0,0,0,0,0,0,0,0,0,0,-2.6022,-2.6022,0,-2.5977,-2.5976,-2.5976,-2.595,-2.595,-2.595,-2.595,-2.5903,-2.5902,-2.59,0,0,0,0,0,0,0,0,0,0,0,0,0,-2.6087,-2.6086,-2.6022,-2.6022,-2.6021,-2.5977,-2.5976,-2.5976,-2.595,-2.595,-2.595,-2.595,-2.5903,-2.5902,-2.59,0,0,0,0,0,0,0,0,0,0,0,0,0,-2.6052,-2.6086,-2.6022,-2.6003,-2.6001,-2.5977,-2.5976,-2.5975,-2.595,-2.595,-2.595,-2.595,-2.5904,-2.5902,-2.59,-2.5892,0,0,-2.5895,-2.5894,0,0,0,0,0,0,0,0,-2.6054,-2.605,-2.6006,-2.6004,-2.6002,-2.5969,-2.5982,-2.5947,-2.595,-2.5969,-2.595,-2.595,-2.5925,-2.5921,-2.5913,-2.5889,-2.5887,-2.5895,-2.5893,-2.5893,-2.5892,0,0,0,0,0,0,0,-2.6056,-2.6051,-2.6004,-2.6006,-2.6003,-2.5997,-2.5992,-2.5975,-2.5948,-2.5968,-2.5966,-2.5961,-2.5924,-2.5915,-2.5912,-2.5887,-2.5895,-2.5893,-2.5892,-2.5891,-2.5856,-2.5856,0,0,0,0,0,0,-2.6062,-2.6054,-2.6006,-2.6003,-2.6028,-2.5996,-2.599,-2.598,-2.5948,-2.5944,-2.5961,-2.596,-2.5918,-2.5914,-2.591,-2.5899,-2.5893,-2.5891,-2.589,-2.5856,-2.5856,-2.5856,0,0,0,0,0,0,-2.6063,-2.6058,-2.6007,-2.6028,-2.6021,-2.5995,-2.5983,-2.5979,-2.597,-2.5943,-2.5938,-2.5957,-2.5918,-2.5913,-2.5897,-2.5897,-2.589,-2.5889,-2.5856,-2.5856,-2.5856,-2.5877,0,0,0,0,0,0,-2.6065,-2.6059,-2.6055,-2.6028,-2.602,-2.5995,-2.5983,-2.5978,-2.5967,-2.5965,-2.5938,-2.5934,-2.5917,-2.59,-2.5895,-2.5895,-2.5887,-2.5856,-2.5856,-2.5856,-2.5876,-2.5878,-2.5879,0,0,0,0,0,-2.6068,-2.6062,-2.6055,-2.6049,-2.6014,-2.5995,-2.599,-2.5972,-2.5967,-2.5964,-2.5947,-2.5935,-2.5898,-2.5898,-2.5893,-2.5892,-2.5855,-2.5856,-2.5856,-2.5875,-2.5877,-2.5879,0,0,0,0,0,0,-2.6088,-2.6058,-2.605,-2.6034,-2.6018,-2.5991,-2.5985,-2.5974,-2.5958,-2.5956,-2.5934,-2.5928,-2.5915,-2.5902,-2.5903,-2.5883,-2.5876,-2.5875,-2.5892,-2.5894,-2.5895,-2.5899,-2.5886,0,0,0,0,0,-2.6091,-2.6078,-2.6052,-2.6041,-2.6033,-2.6011,-2.6001,-2.5989,-2.597,-2.5963,-2.5945,-2.5927,-2.5912,-2.5902,-2.5886,-2.5874,-2.5869,-2.5871,-2.5873,-2.5874,-2.5874,-2.5868,-2.5869,-2.5857,-2.5857,-2.5857,0,0,-2.6097,-2.6078,-2.6071,-2.6045,-2.603,-2.6018,-2.6005,-2.5991,-2.5982,-2.5961,-2.5945,-2.5932,-2.5911,-2.5897,-2.589,-2.5886,-2.5876,-2.5875,-2.5876,-2.5874,-2.5868,-2.587,-2.5871,-2.5857,-2.5857,-2.5857,0,0,-2.61,-2.6085,-2.6075,-2.6061,-2.604,-2.6025,-2.6023,-2.5998,-2.5989,-2.5973,-2.5958,-2.5946,-2.592,-2.5906,-2.5896,-2.5897,-2.5886,-2.5893,-2.5901,-2.5896,-2.5896,-2.5897,-2.5899,-2.5899,-2.5892,-2.5892,-2.5892,0,-2.6109,-2.609,-2.6071,-2.6059,-2.6049,-2.603,-2.6021,-2.6008,-2.5983,-2.5976,-2.5971,-2.594,-2.5924,-2.5908,-2.5909,-2.59,-2.5898,-2.5895,-2.5898,-2.5898,-2.5899,-2.59,-2.5901,-2.5893,-2.5893,-2.5893,-2.5893,0,-2.6103,-2.6089,-2.6084,-2.6061,-2.605,-2.6039,-2.602,-2.6011,-2.6,-2.5986,-2.5972,-2.5953,-2.5934,-2.5929,-2.5918,-2.5912,-2.591,-2.5902,-2.5894,-2.5901,-2.5902,-2.5902,-2.5895,-2.5894,-2.5894,-2.5894,0,0,-2.6116,-2.6085,-2.6083,-2.6074,-2.605,-2.6039,-2.6029,-2.6011,-2.6004,-2.5988,-2.5979,-2.5958,-2.5951,-2.594,-2.5927,-2.5922,-2.5926,-2.5915,-2.5914,-2.5918,-2.5921,-2.5927,-2.5928,-2.5919,-2.5919,-2.5919,-2.5923,0,-2.6116,-2.6096,-2.6081,-2.6066,-2.6055,-2.6039,-2.6029,-2.6014,-2.6002,-2.599,-2.5976,-2.5963,-2.5954,-2.5947,-2.5942,-2.5927,-2.5927,-2.5926,-2.5911,-2.591,-2.5917,-2.5928,-2.5934,-2.5938,-2.5923,-2.5923,-2.5923,0,-2.6113,-2.6099,-2.6084,-2.6064,-2.6059,-2.6051,-2.6034,-2.6023,-2.6006,-2.5998,-2.5986,-2.5974,-2.5962,-2.5956,-2.5941,-2.5941,-2.5934,-2.5926,-2.5926,-2.5924,-2.5917,-2.5927,-2.5939,-2.594,-2.5923,-2.5923,-2.5923,0,-2.6126,-2.6103,-2.6091,-2.6083,-2.6059,-2.6054,-2.6044,-2.6027,-2.6018,-2.6004,-2.5998,-2.5983,-2.5975,-2.5963,-2.5947,-2.5944,-2.5934,-2.5926,-2.5928,-2.5928,-2.5926,-2.5926,-2.5938,-2.5921,-2.5921,-2.5921,-2.5921,0,-2.6128,-2.6119,-2.6097,-2.609,-2.6081,-2.6063,-2.6055,-2.6043,-2.6029,-2.602,-2.6005,-2.5997,-2.5976,-2.5966,-2.5953,-2.5943,-2.5939,-2.5933,-2.5929,-2.5934,-2.5935,-2.5929,-2.5928,-2.5921,-2.5921,-2.5921,-2.5921,0,-2.6139,-2.6124,-2.611,-2.609,-2.6084,-2.6079,-2.6061,-2.6054,-2.6042,-2.603,-2.6027,-2.6007,-2.5995,-2.5978,-2.596,-2.5951,-2.5944,-2.5938,-2.5949,-2.5948,-2.595,-2.595,-2.5958,-2.5959,-2.5942,-2.5942,-2.5942,0,-2.6141,-2.6135,-2.6114,-2.6108,-2.6098,-2.6087,-2.6079,-2.6062,-2.6054,-2.6036,-2.6032,-2.6018,-2.6006,-2.5987,-2.5971,-2.5958,-2.5953,-2.5957,-2.595,-2.5956,-2.5954,-2.5954,-2.5954,-2.5958,-2.5958,-2.5958,-2.5959,0,-2.6147,-2.6141,-2.6129,-2.6116,-2.6107,-2.6095,-2.6083,-2.6078,-2.6059,-2.6051,-2.6038,-2.603,-2.6012,-2.5999,-2.5984,-2.5974,-2.5964,-2.5961,-2.5961,-2.5965,-2.5972,-2.597,-2.5954,-2.5961,-2.596,-2.596,-2.596,-2.596,-2.6154,-2.6149,-2.6134,-2.6123,-2.6112,-2.6102,-2.6095,-2.6083,-2.6072,-2.6057,-2.6048,-2.6036,-2.6022,-2.6001,-2.5991,-2.5982,-2.5978,-2.5977,-2.5977,-2.5978,-2.598,-2.5974,-2.598,-2.5979,-2.5979,-2.5979,-2.5979,0,-2.616,-2.6151,-2.6141,-2.6125,-2.6116,-2.6108,-2.6095,-2.6088,-2.6078,-2.6066,-2.6056,-2.6042,-2.6031,-2.6015,-2.6002,-2.5998,-2.5993,-2.5996,-2.5996,-2.5994,-2.5984,-2.5986,-2.6,-2.6,-2.6,-2.6,-2.6,-2.6,-2.6162,-2.6153,-2.6145,-2.6131,-2.6121,-2.6111,-2.6104,-2.6095,-2.6085,-2.6071,-2.6062,-2.6052,-2.6039,-2.6026,-2.6015,-2.6011,-2.6007,-2.6011,-2.6006,-2.5996,-2.5994,-2.5993,-2.5994,-2.6011,-2.6011,-2.6017,-2.6017,-2.6017]},{"header":{"parameterUnit":"m.s-1","parameterCategory":1,"la1":30.2991,"la2":30.254,"lo1":-89.0895,"lo2":-89.0444,"dy":0.0017,"dx":0.0017,"nx":28,"ny":28,"refTime":"2024-10-06T09:00:00:Z","depth":0,"parameterNumber":3,"parameterNumberName":"V-component_of_WINDS"},"data":[0,0,0,0,0,0,0,0,0,0,0,0,0,0,0,0,0,0,0,0,0,0,0,0,0,0,0,0,0,0,0,0,0,0,0,0,0,0,0,0,0,0,0,0,0,0,0,0,0,0,0,0,0,0,0,0,0,0,-2.3739,-2.3739,0,-2.3708,-2.3707,-2.3707,-2.3745,-2.3746,-2.3747,-2.3749,-2.3715,-2.3713,-2.371,0,0,0,0,0,0,0,0,0,0,0,0,0,-2.3832,-2.383,-2.3739,-2.3739,-2.3739,-2.3708,-2.3707,-2.3707,-2.3744,-2.3746,-2.3748,-2.3749,-2.3715,-2.3713,-2.371,0,0,0,0,0,0,0,0,0,0,0,0,0,-2.3795,-2.3829,-2.3739,-2.3754,-2.3755,-2.3708,-2.3707,-2.3707,-2.3744,-2.3746,-2.3748,-2.375,-2.3716,-2.3713,-2.371,-2.3647,0,0,-2.37,-2.3698,0,0,0,0,0,0,0,0,-2.3797,-2.3792,-2.3752,-2.3752,-2.3753,-2.3732,-2.3728,-2.3687,-2.3743,-2.3748,-2.3749,-2.3751,-2.3719,-2.3715,-2.3705,-2.3646,-2.3644,-2.3699,-2.3697,-2.3696,-2.3695,0,0,0,0,0,0,0,-2.38,-2.3793,-2.3727,-2.3751,-2.3752,-2.3761,-2.3759,-2.372,-2.3722,-2.3748,-2.375,-2.3746,-2.372,-2.3708,-2.3704,-2.3644,-2.3699,-2.3697,-2.3694,-2.3693,-2.3534,-2.3532,0,0,0,0,0,0,-2.3801,-2.3795,-2.3728,-2.3726,-2.3781,-2.3758,-2.3755,-2.3737,-2.3722,-2.3722,-2.3744,-2.3748,-2.3712,-2.3708,-2.3703,-2.3631,-2.3696,-2.3693,-2.3691,-2.3536,-2.3534,-2.3531,0,0,0,0,0,0,-2.3802,-2.3794,-2.3729,-2.3761,-2.3754,-2.3754,-2.3734,-2.3735,-2.3724,-2.372,-2.372,-2.3732,-2.3714,-2.3708,-2.3662,-2.363,-2.3691,-2.3688,-2.3539,-2.3536,-2.3533,-2.3484,0,0,0,0,0,0,-2.3805,-2.3795,-2.3771,-2.376,-2.3752,-2.3688,-2.3732,-2.3733,-2.3718,-2.3722,-2.3709,-2.3708,-2.3715,-2.3666,-2.3658,-2.3627,-2.3686,-2.3542,-2.3538,-2.3534,-2.3488,-2.348,-2.3472,0,0,0,0,0,-2.3808,-2.3757,-2.3769,-2.3761,-2.3722,-2.3686,-2.3681,-2.369,-2.3715,-2.3691,-2.369,-2.3709,-2.3635,-2.3661,-2.3652,-2.3619,-2.3544,-2.3539,-2.3534,-2.3492,-2.3481,-2.3472,0,0,0,0,0,0,-2.3763,-2.3756,-2.3769,-2.3714,-2.37,-2.3692,-2.3662,-2.3678,-2.3656,-2.3661,-2.3674,-2.367,-2.3621,-2.3616,-2.3645,-2.3559,-2.3593,-2.3586,-2.3565,-2.3554,-2.3546,-2.3549,-2.3683,0,0,0,0,0,-2.3746,-2.3718,-2.3714,-2.3665,-2.3658,-2.3661,-2.3646,-2.3655,-2.3641,-2.3635,-2.3629,-2.3615,-2.3589,-2.3571,-2.3547,-2.3488,-2.3486,-2.3461,-2.3453,-2.3446,-2.344,-2.341,-2.3399,-2.3515,-2.3515,-2.3515,0,0,-2.3712,-2.3705,-2.3686,-2.3656,-2.3646,-2.3617,-2.3656,-2.3623,-2.3601,-2.363,-2.3586,-2.3582,-2.3567,-2.3514,-2.3491,-2.3508,-2.3408,-2.3439,-2.3434,-2.3432,-2.3404,-2.3393,-2.3383,-2.3511,-2.3512,-2.3513,0,0,-2.3635,-2.3626,-2.3586,-2.3576,-2.3562,-2.3565,-2.3555,-2.3545,-2.3544,-2.3501,-2.3522,-2.3497,-2.3451,-2.344,-2.3428,-2.3349,-2.3367,-2.3341,-2.3297,-2.3268,-2.3259,-2.3251,-2.3225,-2.3215,-2.3335,-2.3335,-2.3334,0,-2.3594,-2.3551,-2.3563,-2.3529,-2.3516,-2.3541,-2.3501,-2.3491,-2.3469,-2.3459,-2.3479,-2.3423,-2.3415,-2.3361,-2.3342,-2.3332,-2.3322,-2.3342,-2.326,-2.3252,-2.3245,-2.3219,-2.3209,-2.3332,-2.3332,-2.3332,-2.3333,0,-2.3502,-2.3472,-2.3441,-2.3421,-2.3404,-2.3367,-2.3374,-2.3355,-2.3366,-2.3367,-2.3324,-2.3315,-2.329,-2.3278,-2.3287,-2.3226,-2.3237,-2.3258,-2.3293,-2.3231,-2.3207,-2.3197,-2.3327,-2.3328,-2.3329,-2.333,0,0,-2.3394,-2.3383,-2.3371,-2.3364,-2.3351,-2.3328,-2.3292,-2.3269,-2.3254,-2.3238,-2.321,-2.3171,-2.3191,-2.3178,-2.3186,-2.3161,-2.3101,-2.3185,-2.3185,-2.3171,-2.3036,-2.3021,-2.301,-2.3113,-2.3111,-2.311,-2.3038,0,-2.3318,-2.3257,-2.3269,-2.321,-2.3183,-2.3208,-2.3178,-2.3167,-2.3167,-2.3145,-2.3145,-2.3119,-2.3146,-2.3138,-2.3114,-2.3114,-2.3074,-2.3119,-2.3087,-2.3086,-2.3091,-2.2997,-2.2981,-2.2913,-2.3028,-2.3027,-2.3026,0,-2.322,-2.3203,-2.3142,-2.3136,-2.3125,-2.3098,-2.3079,-2.3056,-2.3045,-2.3047,-2.3034,-2.3048,-2.3013,-2.3048,-2.3002,-2.3032,-2.302,-2.3017,-2.3015,-2.3013,-2.3052,-2.2994,-2.2892,-2.2882,-2.3011,-2.3012,-2.3013,0,-2.315,-2.3111,-2.3071,-2.3063,-2.3054,-2.3034,-2.303,-2.302,-2.3007,-2.299,-2.2981,-2.296,-2.2948,-2.2932,-2.294,-2.2965,-2.2893,-2.2928,-2.2894,-2.2894,-2.2878,-2.2879,-2.2774,-2.2868,-2.2869,-2.2869,-2.2869,0,-2.3064,-2.3026,-2.3039,-2.3014,-2.2973,-2.2986,-2.2945,-2.2943,-2.2935,-2.2911,-2.2931,-2.2907,-2.2919,-2.2896,-2.2902,-2.2864,-2.2858,-2.286,-2.2862,-2.2859,-2.2859,-2.2851,-2.2856,-2.2866,-2.2867,-2.2867,-2.2868,0,-2.2978,-2.2985,-2.2943,-2.2939,-2.2937,-2.2907,-2.2904,-2.2881,-2.2883,-2.2852,-2.2846,-2.285,-2.2824,-2.2831,-2.2803,-2.2807,-2.2759,-2.2767,-2.2764,-2.2766,-2.2732,-2.2736,-2.262,-2.2606,-2.2708,-2.2707,-2.2706,0,-2.2924,-2.2895,-2.2889,-2.2875,-2.2869,-2.2845,-2.2832,-2.2844,-2.283,-2.2816,-2.2795,-2.2772,-2.2754,-2.2712,-2.2713,-2.2692,-2.27,-2.2661,-2.2697,-2.2695,-2.2702,-2.2704,-2.2702,-2.2654,-2.2653,-2.2652,-2.2651,0,-2.2826,-2.2832,-2.2812,-2.2794,-2.2778,-2.2764,-2.2752,-2.2739,-2.2751,-2.2733,-2.2708,-2.2695,-2.2668,-2.2645,-2.2626,-2.2622,-2.2638,-2.264,-2.2631,-2.2628,-2.2628,-2.2629,-2.2745,-2.2642,-2.2643,-2.2644,-2.2644,-2.2645,-2.2755,-2.2733,-2.2725,-2.2703,-2.2696,-2.2685,-2.2664,-2.2665,-2.2645,-2.2624,-2.2633,-2.2605,-2.2596,-2.2573,-2.2566,-2.2545,-2.256,-2.2547,-2.2544,-2.2541,-2.2537,-2.263,-2.2541,-2.2541,-2.2542,-2.2542,-2.2542,0,-2.2661,-2.2658,-2.2638,-2.2621,-2.2604,-2.2623,-2.2611,-2.2595,-2.2571,-2.2561,-2.2544,-2.2517,-2.2495,-2.2495,-2.2475,-2.2458,-2.2466,-2.2453,-2.2455,-2.2454,-2.2524,-2.2534,-2.2447,-2.2447,-2.2447,-2.2447,-2.2447,-2.2447,-2.261,-2.2573,-2.2577,-2.2537,-2.2535,-2.2508,-2.25,-2.2491,-2.2484,-2.2453,-2.2435,-2.2436,-2.243,-2.2411,-2.2392,-2.2393,-2.2385,-2.237,-2.2373,-2.2439,-2.2448,-2.2457,-2.2467,-2.2367,-2.2367,-2.2305,-2.2304,-2.2304]}]]